Creede, CO

11:09 PM MST on February 27, 2017 (GMT -0700)
Wolf Creek Pass

Weather History for KCPW - November, 2013

Change the Weather History Date:

Tuesday, November 5, 2013

  Actual Average (KE33) Record (KE33)
Temperature  
Mean Temperature 13 °F -  
Max Temperature 23 °F 45 °F 66 °F (2007)
Min Temperature 3 °F 29 °F 19 °F (2003)
Degree Days  
Heating Degree Days 52    
Moisture  
Dew Point 13 °F    
Average Humidity 91    
Maximum Humidity 100    
Minimum Humidity 34    
Precipitation  
Precipitation 0.28 in - - ()
Sea Level Pressure  
Sea Level Pressure 30.02 in    
Wind  
Wind Speed 17 mph (WSW)    
Max Wind Speed 32 mph    
Max Gust Speed 46 mph    
Visibility 3 miles    
Events Fog , Snow , Thunderstorm    
Averages and records for this station are not official NWS values.
T = Trace of Precipitation, MM = Missing Value Source: NWS Daily Summary

Daily Weather History Graph

Daily Weather History Graph

Search for Another Location

Airport or City:

Trip Planner

Search our weather history database for the weather conditions in past years. The results will help you decide how hot, cold, wet, or windy it might be!

Date:

Astronomy

Nov. 05, 2013 Rise Set
Actual Time 6:36 AM MST 5:04 PM MST
Civil Twilight 6:09 AM MST 5:31 PM MST
Nautical Twilight 5:38 AM MST 6:02 PM MST
Astronomical Twilight 5:07 AM MST 6:33 PM MST
Moon 8:52 AM MST (11/5) 7:10 PM MST (11/5)
Length of Visible Light 11h 22m
Length of Day
10h 28m
Waxing Crescent, 7% of the Moon is Illuminated
Nov 5
Waxing Crescent
Nov 9
First Quarter
Nov 17
Full
Nov 25
Last Quarter
Dec 2
New

Hourly Weather History & Observations

Time (MST) Temp. Windchill Dew Point Humidity Pressure Visibility Wind Dir Wind Speed Gust Speed Precip Events Conditions
12:08 AM 23.0 °F 7.6 °F 23.0 °F 100% 29.94 in 0.2 mi SW 21.9 mph 38.0 mph 0.02 in Snow Heavy Snow
12:28 AM 23.0 °F 8.3 °F 23.0 °F 100% 29.93 in 0.2 mi SW 19.6 mph - 0.05 in Snow Heavy Snow
12:48 AM 23.0 °F 7.2 °F 21.2 °F 93% 29.93 in 0.2 mi SSW 23.0 mph 31.1 mph 0.08 in Snow , Thunderstorm Heavy Thunderstorms and Snow
1:08 AM 21.2 °F - 21.2 °F 100% 29.92 in 0.2 mi North - - 0.02 in Snow Heavy Snow
1:28 AM 21.2 °F - 21.2 °F 100% 29.92 in 0.5 mi North - - 0.04 in Snow Heavy Snow
1:48 AM 21.2 °F - 21.2 °F 100% 29.92 in 0.5 mi North - - 0.06 in Snow Snow
2:08 AM 21.2 °F - 21.2 °F 100% 29.92 in 0.5 mi North - - N/A Snow Snow
2:28 AM 21.2 °F - 21.2 °F 100% 29.92 in 0.5 mi North - - 0.01 in Snow Snow
2:48 AM 21.2 °F - 21.2 °F 100% 29.92 in 0.5 mi North - - 0.01 in Snow Light Snow
3:08 AM 21.2 °F 10.9 °F 21.2 °F 100% 29.92 in 0.2 mi SSW 9.2 mph 24.2 mph N/A Snow Light Snow
3:28 AM 21.2 °F - 21.2 °F 100% 29.91 in 0.2 mi North - - N/A Snow Heavy Snow
3:48 AM 21.2 °F 7.3 °F 21.2 °F 100% 29.91 in 0.5 mi SW 16.1 mph 23.0 mph 0.01 in Snow Heavy Snow
4:08 AM 21.2 °F 6.8 °F 21.2 °F 100% 29.92 in 0.2 mi SW 17.3 mph 25.3 mph 0.01 in Snow Heavy Snow
4:28 AM 21.2 °F 7.8 °F 19.4 °F 93% 29.92 in 0.2 mi SW 15.0 mph 28.8 mph 0.03 in Snow Snow
4:48 AM 21.2 °F - 19.4 °F 93% 29.92 in 0.2 mi North - - 0.04 in Snow Snow
5:08 AM 19.4 °F 4.1 °F 19.4 °F 100% 29.93 in 0.2 mi SSW 18.4 mph - 0.01 in Snow Snow
5:28 AM 19.4 °F 5.5 °F 19.4 °F 100% 29.94 in 0.2 mi SW 15.0 mph - 0.04 in Snow Heavy Snow
5:48 AM 19.4 °F 5.0 °F 19.4 °F 100% 29.94 in 0.2 mi SW 16.1 mph - 0.05 in Snow Heavy Snow
6:08 AM 19.4 °F - 19.4 °F 100% 29.94 in 0.2 mi North - - N/A Snow Heavy Snow
6:28 AM 19.4 °F 4.1 °F 17.6 °F 93% 29.94 in 0.2 mi SW 18.4 mph - 0.01 in Snow Heavy Snow
6:48 AM 19.4 °F - 17.6 °F 93% 29.96 in 0.2 mi North - - 0.03 in Snow Heavy Snow
7:08 AM 19.4 °F 4.1 °F 17.6 °F 93% 29.96 in 0.2 mi SW 18.4 mph - N/A Snow Heavy Snow
7:28 AM 17.6 °F - 17.6 °F 100% 29.96 in 0.2 mi North - - 0.01 in Snow Heavy Snow
7:48 AM 17.6 °F - 17.6 °F 100% 29.96 in 0.2 mi North - - 0.01 in Snow Heavy Snow
8:08 AM 17.6 °F 3.7 °F 17.6 °F 100% 29.97 in 0.2 mi SSW 13.8 mph - N/A Snow Light Snow
8:28 AM 17.6 °F 1.3 °F 17.6 °F 100% 29.98 in 0.2 mi SW 19.6 mph 28.8 mph N/A Snow Light Snow
8:48 AM 17.6 °F 1.3 °F 17.6 °F 100% 29.98 in 0.2 mi SW 19.6 mph - N/A Snow Heavy Snow
9:08 AM 17.6 °F 1.7 °F 17.6 °F 100% 29.97 in 0.2 mi SSW 18.4 mph 39.1 mph N/A Snow Light Snow
9:28 AM 17.6 °F -0.6 °F 17.6 °F 100% 29.96 in 0.2 mi SW 25.3 mph 42.6 mph N/A Snow Heavy Snow
9:48 AM 17.6 °F -2.5 °F 15.8 °F 93% 29.95 in 0.2 mi SW 32.2 mph 46.0 mph 0.01 in Snow Light Snow
10:08 AM 17.6 °F -1.3 °F 15.8 °F 93% 29.97 in 0.2 mi SW 27.6 mph 43.7 mph N/A Snow Light Snow
10:28 AM 17.6 °F -1.9 °F 15.8 °F 93% 29.98 in 0.2 mi SW 29.9 mph 42.6 mph N/A Fog Light Freezing Fog
10:48 AM 17.6 °F -2.5 °F 14.0 °F 86% 29.98 in 0.5 mi SW 32.2 mph 43.7 mph N/A Snow Light Snow
11:08 AM 15.8 °F -2.3 °F 14.0 °F 93% 29.99 in 0.5 mi SW 23.0 mph 46.0 mph N/A Snow Light Snow
11:28 AM 15.8 °F -2.7 °F 14.0 °F 93% 29.99 in 0.8 mi SW 24.2 mph 43.7 mph N/A Snow Light Snow
11:48 AM 15.8 °F -4.4 °F 14.0 °F 93% 29.99 in 2.0 mi SW 29.9 mph 40.3 mph N/A   Overcast
12:08 PM 15.8 °F -2.7 °F 14.0 °F 93% 29.99 in 0.2 mi SSW 24.2 mph 35.7 mph N/A Snow Light Snow
12:28 PM 15.8 °F 0.9 °F 14.0 °F 93% 29.99 in 0.2 mi SW 15.0 mph 28.8 mph N/A Snow Snow
12:48 PM 15.8 °F 0.9 °F 14.0 °F 93% 29.99 in 0.5 mi SW 15.0 mph 29.9 mph N/A Snow Light Snow
1:08 PM 15.8 °F 0.9 °F 14.0 °F 93% 29.99 in 0.5 mi SW 15.0 mph 28.8 mph N/A Snow Light Snow
1:28 PM 15.8 °F 2.7 °F 14.0 °F 93% 30.00 in 0.2 mi SW 11.5 mph 18.4 mph N/A Snow Snow
1:48 PM 15.8 °F -0.6 °F 14.0 °F 93% 29.99 in 0.5 mi SW 18.4 mph 23.0 mph 0.01 in Snow Snow
2:08 PM 14.0 °F -0.8 °F 14.0 °F 100% 30.00 in 0.2 mi SW 13.8 mph 25.3 mph N/A Snow Snow
2:28 PM 14.0 °F -2.5 °F 14.0 °F 100% 30.01 in 0.2 mi SW 17.3 mph 26.5 mph 0.01 in Snow Snow
2:48 PM 14.0 °F -2.0 °F 14.0 °F 100% 30.02 in 0.2 mi SSW 16.1 mph 21.9 mph 0.01 in Snow Snow
3:08 PM 14.0 °F -0.2 °F 14.0 °F 100% 30.02 in 0.5 mi SSW 12.7 mph 25.3 mph N/A Snow Snow
3:28 PM 14.0 °F 1.2 °F 14.0 °F 100% 30.03 in 0.2 mi SSW 10.4 mph 19.6 mph 0.01 in Snow Snow
3:48 PM 14.0 °F 2.9 °F 12.2 °F 93% 30.05 in 0.2 mi SSW 8.1 mph 18.4 mph 0.01 in Snow Snow
4:08 PM 14.0 °F 2.9 °F 12.2 °F 93% 30.07 in 0.5 mi SW 8.1 mph - N/A Snow Snow
4:28 PM 14.0 °F 5.1 °F 12.2 °F 93% 30.07 in 0.2 mi WNW 5.8 mph - 0.02 in Snow Snow
4:48 PM 14.0 °F 2.9 °F 12.2 °F 93% 30.08 in 0.2 mi West 8.1 mph - 0.03 in Snow Snow
5:08 PM 12.2 °F -1.0 °F 10.4 °F 92% 30.09 in 10.0 mi SW 10.4 mph - N/A Snow Light Snow
5:28 PM 12.2 °F -1.0 °F 10.4 °F 92% 30.09 in 7.0 mi SW 10.4 mph - N/A   Overcast
5:48 PM 10.4 °F -3.3 °F 8.6 °F 92% 30.10 in 10.0 mi WSW 10.4 mph - N/A   Scattered Clouds
6:08 PM 10.4 °F -5.4 °F 8.6 °F 92% 30.11 in 5.0 mi WSW 13.8 mph - N/A   Scattered Clouds
6:28 PM 12.2 °F -3.1 °F 10.4 °F 92% 30.12 in 4.0 mi SW 13.8 mph - N/A   Mostly Cloudy
6:48 PM 12.2 °F -2.5 °F 10.4 °F 92% 30.13 in 10.0 mi SW 12.7 mph - N/A   Overcast
7:08 PM 12.2 °F 0.7 °F 10.4 °F 92% 30.14 in 10.0 mi WSW 8.1 mph - N/A   Overcast
7:28 PM 10.4 °F -2.4 °F 8.6 °F 92% 30.15 in 10.0 mi SW 9.2 mph - N/A   Overcast
7:48 PM 8.6 °F 2.0 °F 6.8 °F 92% 30.15 in 10.0 mi WNW 3.5 mph - N/A   Scattered Clouds
8:08 PM 5.0 °F -6.9 °F 1.4 °F 85% 30.14 in 10.0 mi West 6.9 mph - N/A   Clear
8:28 PM 3.2 °F -7.8 °F 1.4 °F 92% 30.15 in 10.0 mi West 5.8 mph - N/A   Clear
8:48 PM 3.2 °F -9.1 °F 1.4 °F 92% 30.15 in 10.0 mi NE 6.9 mph - N/A   Clear
9:08 PM 3.2 °F -6.2 °F 1.4 °F 92% 30.16 in 10.0 mi NE 4.6 mph - N/A   Clear
9:28 PM 3.2 °F -9.1 °F 1.4 °F 92% 30.17 in 10.0 mi North 6.9 mph - N/A   Clear
9:48 PM 5.0 °F -8.1 °F 1.4 °F 85% 30.17 in 10.0 mi North 8.1 mph - N/A   Clear
10:08 PM 5.0 °F -6.9 °F -0.4 °F 78% 30.19 in 10.0 mi NNW 6.9 mph - N/A   Clear
10:28 PM 8.6 °F 2.0 °F -7.6 °F 48% 30.19 in 10.0 mi North 3.5 mph - N/A   Clear
10:48 PM 8.6 °F 0.1 °F -9.4 °F 44% 30.19 in 10.0 mi NW 4.6 mph - N/A   Clear
11:08 PM 8.6 °F -2.6 °F -11.2 °F 40% 30.20 in 10.0 mi NW 6.9 mph - N/A   Clear
11:28 PM 8.6 °F -2.6 °F -13.0 °F 37% 30.20 in 10.0 mi NW 6.9 mph - N/A   Clear
11:48 PM 8.6 °F -3.7 °F -14.8 °F 34% 30.21 in 10.0 mi NNW 8.1 mph - N/A   Clear